Madison, MN

11:44 AM CST on December 12, 2019 (GMT -0600)
Madison-Lac Qui Parle County

Weather History for KDXX - August, 2019

Change the Weather History Date:

Tuesday, August 6, 2019

  Actual Average (WUND) Record (WUND)
Temperature  
Mean Temperature 76 °F -  
Max Temperature 89 °F - - (-1)
Min Temperature 62 °F - - (-1)
Cooling Degree Days 10    
Growing Degree Days 26 (Base 50)    
Moisture  
Dew Point 62 °F    
Average Humidity 66    
Maximum Humidity 94    
Minimum Humidity 35    
Precipitation  
Precipitation 0.00 in - - ()
Sea Level Pressure  
Sea Level Pressure 29.88 in    
Wind  
Wind Speed 6 mph (West)    
Max Wind Speed 13 mph    
Max Gust Speed 17 mph    
Visibility 10 miles    
Events      
Averages and records for this station are not official NWS values.
T = Trace of Precipitation, MM = Missing Value Source: NWS Daily Summary

Daily Weather History Graph

Daily Weather History Graph

Search for Another Location

Airport or City:

Astronomy

Aug. 06, 2019 Rise Set
Actual Time 6:15 AM CDT 8:44 PM CDT
Civil Twilight 5:42 AM CDT 9:17 PM CDT
Nautical Twilight 5:01 AM CDT 9:58 PM CDT
Astronomical Twilight 4:13 AM CDT 10:45 PM CDT
Moon 12:58 PM CDT (8/6) No Moon Set
Length of Visible Light 15h 35m
Length of Day
14h 29m
Waxing Crescent, 39% of the Moon is Illuminated
Aug 6
Waxing Crescent
Aug 7
First Quarter
Aug 15
Full
Aug 23
Last Quarter
Aug 30
New

Hourly Weather History & Observations

Time (CDT) Temp. Heat Index Dew Point Humidity Pressure Visibility Wind Dir Wind Speed Gust Speed Precip Events Conditions
12:16 AM 64.4 °F - 62.6 °F 94% 29.92 in 10.0 mi West 4.6 mph - N/A   Clear
12:35 AM 64.4 °F - 62.6 °F 94% 29.93 in 10.0 mi West 5.8 mph - N/A   Clear
12:36 AM 64.4 °F - 62.6 °F 94% 29.93 in 10.0 mi West 5.8 mph - N/A   Clear
12:55 AM 64.4 °F - 62.6 °F 94% 29.93 in 10.0 mi West 5.8 mph - N/A   Clear
12:56 AM 64.4 °F - 62.6 °F 94% 29.93 in 10.0 mi West 5.8 mph - N/A   Clear
1:19 AM 64.4 °F - 62.6 °F 94% 29.93 in 10.0 mi West 6.9 mph - N/A   Clear
1:36 AM 64.4 °F - 62.6 °F 94% 29.93 in 10.0 mi West 5.8 mph - N/A   Clear
1:56 AM 64.4 °F - 62.6 °F 94% 29.92 in 10.0 mi West 6.9 mph - N/A   Clear
2:15 AM 64.4 °F - 62.6 °F 94% 29.93 in 10.0 mi West 6.9 mph - N/A   Clear
2:16 AM 64.4 °F - 62.6 °F 94% 29.93 in 10.0 mi West 6.9 mph - N/A   Clear
2:35 AM 64.4 °F - 62.6 °F 94% 29.92 in 10.0 mi West 5.8 mph - N/A   Clear
2:39 AM 64.4 °F - 62.6 °F 94% 29.92 in 10.0 mi West 5.8 mph - N/A   Clear
2:58 AM 64.4 °F - 62.6 °F 94% 29.92 in 10.0 mi West 4.6 mph - N/A   Clear
3:15 AM 62.6 °F - 60.8 °F 94% 29.92 in 10.0 mi West 6.9 mph - N/A   Clear
3:35 AM 62.6 °F - 60.8 °F 94% 29.92 in 10.0 mi West 6.9 mph - N/A   Clear
3:36 AM 62.6 °F - 60.8 °F 94% 29.92 in 10.0 mi West 6.9 mph - N/A   Clear
3:55 AM 62.6 °F - 60.8 °F 94% 29.93 in 10.0 mi West 6.9 mph - N/A   Clear
4:18 AM 62.6 °F - 60.8 °F 94% 29.92 in 10.0 mi West 5.8 mph - N/A   Clear
4:36 AM 62.6 °F - 60.8 °F 94% 29.92 in 10.0 mi West 4.6 mph - N/A   Clear
4:55 AM 62.6 °F - 60.8 °F 94% 29.92 in 10.0 mi West 5.8 mph - N/A   Clear
5:15 AM 62.6 °F - 60.8 °F 94% 29.92 in 10.0 mi West 5.8 mph - N/A   Clear
5:16 AM 62.6 °F - 60.8 °F 94% 29.92 in 10.0 mi West 5.8 mph - N/A   Clear
5:35 AM 62.6 °F - 60.8 °F 94% 29.92 in 10.0 mi West 5.8 mph - N/A   Clear
5:40 AM 62.6 °F - 60.8 °F 94% 29.92 in 10.0 mi West 5.8 mph - N/A   Clear
5:57 AM 62.6 °F - 60.8 °F 94% 29.92 in 10.0 mi West 4.6 mph - N/A   Clear
6:15 AM 62.6 °F - 60.8 °F 94% 29.92 in 10.0 mi West 4.6 mph - N/A   Clear
6:35 AM 62.6 °F - 60.8 °F 94% 29.93 in 10.0 mi West 5.8 mph - N/A   Clear
6:55 AM 64.4 °F - 62.6 °F 94% 29.93 in 10.0 mi West 4.6 mph - N/A   Clear
6:56 AM 64.4 °F - 62.6 °F 94% 29.93 in 10.0 mi West 4.6 mph - N/A   Clear
7:19 AM 64.4 °F - 62.6 °F 94% 29.93 in 10.0 mi West 5.8 mph - N/A   Clear
7:36 AM 66.2 °F - 64.4 °F 94% 29.93 in 10.0 mi West 5.8 mph - N/A   Clear
7:56 AM 69.8 °F - 64.4 °F 83% 29.93 in 10.0 mi West 5.8 mph - N/A   Clear
8:15 AM 69.8 °F - 64.4 °F 83% 29.93 in 10.0 mi West 5.8 mph - N/A   Clear
8:35 AM 71.6 °F - 64.4 °F 78% 29.93 in 10.0 mi West 6.9 mph - N/A   Clear
8:39 AM 71.6 °F - 64.4 °F 78% 29.93 in 10.0 mi West 5.8 mph - N/A   Clear
8:57 AM 73.4 °F - 66.2 °F 78% 29.93 in 10.0 mi West 5.8 mph - N/A   Clear
9:16 AM 75.2 °F - 66.2 °F 73% 29.93 in 10.0 mi West 5.8 mph - N/A   Clear
9:35 AM 78.8 °F - 66.2 °F 65% 29.92 in 10.0 mi West 6.9 mph - N/A   Clear
9:36 AM 78.8 °F - 66.2 °F 65% 29.92 in 10.0 mi West 6.9 mph - N/A   Clear
9:55 AM 80.6 °F 82.3 °F 64.4 °F 58% 29.92 in 10.0 mi WNW 6.9 mph - N/A   Clear
9:56 AM 80.6 °F 82.3 °F 64.4 °F 58% 29.92 in 10.0 mi WNW 6.9 mph - N/A   Clear
10:18 AM 80.6 °F 82.3 °F 64.4 °F 58% 29.92 in 10.0 mi WNW 8.1 mph - N/A   Clear
10:36 AM 82.4 °F 83.4 °F 62.6 °F 51% 29.92 in 10.0 mi West 8.1 mph - N/A   Clear
10:55 AM 82.4 °F 83.4 °F 62.6 °F 51% 29.92 in 10.0 mi West 11.5 mph - N/A   Clear
11:15 AM 84.2 °F 85.0 °F 62.6 °F 48% 29.92 in 10.0 mi West 11.5 mph - N/A   Clear
11:16 AM 84.2 °F 85.0 °F 62.6 °F 48% 29.92 in 10.0 mi West 11.5 mph - N/A   Clear
11:35 AM 84.2 °F 85.6 °F 64.4 °F 51% 29.92 in 10.0 mi West 9.2 mph - N/A   Clear
11:40 AM 84.2 °F 85.6 °F 64.4 °F 51% 29.92 in 10.0 mi West 12.7 mph 16.1 mph N/A   Clear
11:57 AM 84.2 °F 85.6 °F 64.4 °F 51% 29.92 in 10.0 mi West 12.7 mph - N/A   Clear
12:15 PM 84.2 °F 85.0 °F 62.6 °F 48% 29.92 in 10.0 mi WNW 12.7 mph - N/A   Clear
12:35 PM 84.2 °F 84.4 °F 60.8 °F 45% 29.91 in 10.0 mi West 10.4 mph - N/A   Clear
12:36 PM 84.2 °F 84.4 °F 60.8 °F 45% 29.91 in 10.0 mi West 11.5 mph - N/A   Clear
12:55 PM 86.0 °F 86.1 °F 60.8 °F 43% 29.90 in 10.0 mi WNW 11.5 mph - N/A   Clear
12:56 PM 86.0 °F 86.1 °F 60.8 °F 43% 29.90 in 10.0 mi WNW 10.4 mph - N/A   Clear
1:18 PM 87.8 °F 88.5 °F 62.6 °F 43% 29.90 in 10.0 mi West 10.4 mph - N/A   Scattered Clouds
1:37 PM 86.0 °F 86.1 °F 60.8 °F 43% 29.89 in 10.0 mi WNW 10.4 mph - N/A   Scattered Clouds
1:56 PM 87.8 °F 87.1 °F 59.0 °F 38% 29.89 in 10.0 mi WNW 10.4 mph 17.3 mph N/A   Scattered Clouds
2:15 PM 87.8 °F 87.1 °F 59.0 °F 38% 29.89 in 10.0 mi WNW 10.4 mph - N/A   Scattered Clouds
2:16 PM 87.8 °F 87.1 °F 59.0 °F 38% 29.89 in 10.0 mi WNW 9.2 mph - N/A   Clear
2:39 PM 87.8 °F 87.1 °F 59.0 °F 38% 29.88 in 10.0 mi WNW 12.7 mph 16.1 mph N/A   Clear
2:57 PM 87.8 °F 87.6 °F 60.8 °F 40% 29.88 in 10.0 mi West 10.4 mph - N/A   Clear
3:16 PM 87.8 °F 86.5 °F 57.2 °F 35% 29.87 in 10.0 mi WNW 9.2 mph - N/A   Clear
3:35 PM 87.8 °F 87.6 °F 60.8 °F 40% 29.87 in 10.0 mi West 10.4 mph 16.1 mph N/A   Clear
3:36 PM 87.8 °F 87.6 °F 60.8 °F 40% 29.87 in 10.0 mi West 10.4 mph 16.1 mph N/A   Clear
3:55 PM 89.6 °F 88.9 °F 59.0 °F 36% 29.87 in 10.0 mi WNW 6.9 mph - N/A   Clear
3:56 PM 89.6 °F 88.9 °F 59.0 °F 36% 29.87 in 10.0 mi West 6.9 mph - N/A   Clear
4:19 PM 87.8 °F 87.1 °F 59.0 °F 38% 29.86 in 10.0 mi West 3.5 mph - N/A   Clear
4:36 PM 87.8 °F 87.1 °F 59.0 °F 38% 29.85 in 10.0 mi West 5.8 mph - N/A   Clear
4:55 PM 87.8 °F 86.5 °F 57.2 °F 35% 29.84 in 10.0 mi West 3.5 mph - N/A   Clear
5:15 PM 87.8 °F 87.6 °F 60.8 °F 40% 29.83 in 10.0 mi SW 5.8 mph - N/A   Clear
5:16 PM 87.8 °F 87.6 °F 60.8 °F 40% 29.83 in 10.0 mi WSW 4.6 mph - N/A   Clear
5:35 PM 87.8 °F 87.6 °F 60.8 °F 40% 29.84 in 10.0 mi West 5.8 mph - N/A   Clear
5:39 PM 87.8 °F 87.6 °F 60.8 °F 40% 29.84 in 10.0 mi West 4.6 mph - N/A   Clear
5:58 PM 87.8 °F 87.6 °F 60.8 °F 40% 29.83 in 10.0 mi West 4.6 mph - N/A   Clear
6:15 PM 86.0 °F 86.6 °F 62.6 °F 45% 29.83 in 10.0 mi West 3.5 mph - N/A   Clear
6:35 PM 84.2 °F 86.6 °F 66.2 °F 55% 29.82 in 10.0 mi Calm Calm - N/A   Clear
6:55 PM 84.2 °F 88.4 °F 69.8 °F 62% 29.82 in 10.0 mi Calm Calm - N/A   Clear
6:56 PM 84.2 °F 88.4 °F 69.8 °F 62% 29.82 in 10.0 mi Calm Calm - N/A   Clear
7:18 PM 82.4 °F 86.3 °F 69.8 °F 66% 29.82 in 10.0 mi Calm Calm - N/A   Clear
7:37 PM 82.4 °F 86.3 °F 69.8 °F 66% 29.81 in 10.0 mi SW 3.5 mph - N/A   Clear
7:56 PM 80.6 °F 83.2 °F 68.0 °F 65% 29.81 in 10.0 mi SW 3.5 mph - N/A   Clear
8:15 PM 80.6 °F 82.7 °F 66.2 °F 61% 29.82 in 10.0 mi WSW 4.6 mph - N/A   Clear
8:16 PM 80.6 °F 82.7 °F 66.2 °F 61% 29.82 in 10.0 mi WSW 4.6 mph - N/A   Clear
8:35 PM 80.6 °F 82.7 °F 66.2 °F 61% 29.82 in 10.0 mi WSW 5.8 mph - N/A   Clear
8:57 PM 80.6 °F 82.7 °F 66.2 °F 61% 29.84 in 10.0 mi WSW 8.1 mph - N/A   Clear
9:16 PM 80.6 °F 82.7 °F 66.2 °F 61% 29.83 in 10.0 mi WSW 8.1 mph - N/A   Clear
9:35 PM 78.8 °F - 66.2 °F 65% 29.83 in 10.0 mi WSW 5.8 mph - N/A   Clear
9:36 PM 78.8 °F - 66.2 °F 65% 29.83 in 10.0 mi SW 8.1 mph - N/A   Clear
9:55 PM 80.6 °F 81.8 °F 62.6 °F 54% 29.82 in 10.0 mi WSW 11.5 mph 17.3 mph N/A   Clear
9:56 PM 80.6 °F 81.8 °F 62.6 °F 54% 29.82 in 10.0 mi WSW 11.5 mph 17.3 mph N/A   Clear
10:19 PM 78.8 °F - 59.0 °F 51% 29.79 in 10.0 mi SW 9.2 mph 16.1 mph N/A   Clear
10:36 PM 78.8 °F - 57.2 °F 47% 29.77 in 10.0 mi SSW 5.8 mph - N/A   Clear
10:56 PM 75.2 °F - 57.2 °F 53% 29.78 in 10.0 mi SSW 6.9 mph - N/A   Clear
11:15 PM 71.6 °F - 60.8 °F 69% 29.78 in 10.0 mi Calm Calm - N/A   Clear
11:16 PM 69.8 °F - 60.8 °F 73% 29.78 in 10.0 mi Calm Calm - N/A   Clear
11:35 PM 73.4 °F - 57.2 °F 57% 29.78 in 10.0 mi ESE 3.5 mph - N/A   Clear
11:39 PM 73.4 °F - 57.2 °F 57% 29.78 in 10.0 mi SE 3.5 mph - N/A   Clear
11:58 PM 69.8 °F - 59.0 °F 68% 29.77 in 10.0 mi South 4.6 mph - N/A   Clear